Погода в Хучни

Россия / Республика Дагестан     41°56′48″N   47°56′42″E
темп.,
°C
ветер,
м/с
пор.,
м/с
влажн.,
%
обл.,
%
осадки,
мм/ч
давл.,
гПа
погр.,
м
21 апреля, ср
ср2100:00+21юз3334100 0.0 100729
03:00+17зюз114895 0.0 101012
06:00+14в2267100 0.0 101235
09:00+16всв3370100 0.0 1015422
12:00+18св436786 0.0 1015762
15:00+17св436881 0.0 1015729
18:00+14ссз4670100 0.0 1020738
21:00+11в2386100 0.8 1020107
22 апреля, чт
чт2200:00+11юв1188100 0.0 101913
03:00+9юз0095100 0.0 102161
06:00+10св1091100 0.0 1021148
09:00+12с117495 0.0 1020542
12:00+17св425996 0.0 10201157
15:00+13с4473100 0.0 1021882
18:00+10с2284100 0.1 1022291
21:00+10сз2386100 0.1 1022381
23 апреля, пт
пт2300:00+10зсз2285100 0.1 101923
03:00+8сз11945 0.1 101911
06:00+9сз228923 0.0 102084
09:00+11с4576100 0.1 1021971
12:00+11ссв3374100 0.1 1022793
15:00+11св2276100 0.1 1022720
18:00+10зюз118080 0.1 1023159
21:00+8ю22860 0.1 102311
24 апреля, сб
сб2400:00+8ю2279100 0.0 102117
03:00+8ю33765 0.0 101931
06:00+10ююв2369100 0.0 101951
09:00+14вюв3458100 0.0 1019809
12:00+16в435570 0.0 10181185
15:00+14в325740 0.0 10191000
18:00+12вюв33674 0.0 1019157
21:00+9ю11810 0.0 102110
25 апреля, вс
вс2500:00+9юз118162 0.0 102010
03:00+9ююв118078 0.0 101910
06:00+10ююв2276100 0.0 101970
09:00+15всв225996 0.0 1017586
12:00+18св4251100 0.0 1014910
15:00+18св425450 0.0 1012624
18:00+13с227010 0.0 1012117
21:00+10сз3376100 0.0 101248